Weather in Barsuki

Russia / Tula Oblast     54°14′39″N   37°30′01″E
temp.,
°C
wind,
m/s
gust,
m/s
humid.,
%
clouds,
%
prec.,
mm/h
press.,
hPa
HPBL,
m
5 march, fri
fri500:00−4n3696100 0.8 1002204
03:00−5nw3896100 0.9 1004219
06:00−8nw339791 0.1 100776
09:00−7wnw259567 0.1 1009155
12:00−4wnw469137 0.0 1010490
15:00−2wnw368364 0.1 1011836
18:00−6wnw338739 0.1 101334
21:00−9wnw228719 0.1 101521
6 march, sat
sat600:00−10w11880 0.0 101621
03:00−11sw11890 0.0 101721
06:00−11s119482 0.0 101621
09:00−8ne129591 1.6 1017137
12:00−5n3491100 1.1 1017476
15:00−4nw358082 1.1 1017822
18:00−8w34880 0.1 101647
21:00−10w34905 0.1 101746
7 march, sun
sun700:00−11wsw35920 0.0 101685
03:00−11sw410925 0.0 1014206
06:00−9sw7168858 0.0 1010447
09:00−7sw10188379 0.0 1005717
12:00−4sw111893100 0.6 10001200
15:00−2wnw121695100 2.4 9981177
18:00−7w6157367 0.4 1001485
21:00−8wsw6167733 0.4 1003470
8 march, mon
mon800:00−8wsw616800 0.0 1000479
03:00−8sw7168133 0.0 999598
06:00−7wsw8159486 0.3 997908
09:00−9wnw7138571 0.4 999797
12:00−8wnw8128499 0.1 10021322
15:00−7wnw8137699 0.3 10041381
18:00−8wnw5128799 0.1 1006577
21:00−9wnw4109398 0.1 1009281
9 march, tue
tue900:00−13wnw349536 0.0 101176
03:00−14wnw359648 0.0 101292
06:00−15nw369695 0.1 1014153
09:00−14nnw479497 0.1 1015369
12:00−12nw469098 0.0 1016526
15:00−11nw468899 0.1 1017657
18:00−13wnw349188 0.0 101860
21:00−15w239059 0.0 101922